Location: Bessat
(45.8735°N, 1.9924°E)
Time: 23:04:07
(UTC+00:00)

Cosmos 2344 - Pass Details

Date: 11 May 2021
Orbit: 1239 x 3003 km, 63.3° (Epoch: 24 June)

Event Time Altitude Azimuth Distance (km) Brightness Sun altitude
Rises 23:27:33 0° 320° (NW) 4,493 7.3 -25.8°
Reaches altitude 10° 23:30:11 10° 323° (NW) 3,646 6.7 -25.9°
Maximum altitude 23:39:16 71° 47° (NE) 1,924 4.5 -26.0°
Enters shadow 23:51:08 12° 131° (SE) 4,718 6.2 -26.0°
